Weather History for Fayetteville, AR

Change the Weather History Date:

Sunday, December 30, 2012

  Actual Average Record
Temperature  
Mean Temperature 27 °F 36 °F  
Max Temperature 41 °F 46 °F 77 °F (1951)
Min Temperature 12 °F 25 °F -6 °F (1983)
Degree Days  
Heating Degree Days 38 29  
Month to date heating degree days 676 823  
Since 1 July heating degree days 1489 1652  
Moisture  
Dew Point 16 °F    
Average Humidity 64    
Maximum Humidity 88    
Minimum Humidity 40    
Precipitation  
Precipitation 0.00 in 0.09 in 1.09 in (2002)
Month to date precipitation 1.97 3.15  
Year to date precipitation 29.88 48.42  
Sea Level Pressure  
Sea Level Pressure 30.39 in    
Wind  
Wind Speed 5 mph (South)    
Max Wind Speed 17 mph    
Max Gust Speed 23 mph    
Visibility 9 miles    
Events      
T = Trace of Precipitation, MM = Missing Value Source: NWS Daily Summary

Daily Weather History Graph

Daily Weather History Graph

Search for Another Location

Airport:

Trip Planner

Search our weather history database for the weather conditions in past years. The results will help you decide how hot, cold, wet, or windy it might be!

Date:

Astronomy

Dec. 30, 2012 Rise Set
Actual Time 7:27 AM CST 5:12 PM CST
Civil Twilight 6:58 AM CST 5:40 PM CST
Nautical Twilight 6:26 AM CST 6:12 PM CST
Astronomical Twilight 5:55 AM CST 6:43 PM CST
Moon 7:39 PM CST (12/30) 8:40 AM CST (12/30)
Length of Visible Light 10h 42m
Length of Day
9h 45m
Waning Gibbous, 95% of the Moon is Illuminated
Dec 30
Waning Gibbous
Jan 4
Last Quarter
Jan 11
New
Jan 18
First Quarter
Jan 26
Full

Hourly Weather History & Observations

Time (CST) Temp. Windchill Dew Point Humidity Pressure Visibility Wind Dir Wind Speed Gust Speed Precip Events Conditions
12:53 AM 15.1 °F 9.4 °F 12.0 °F 88% 30.45 in 8.0 mi SSW 3.5 mph - N/A   Clear
1:53 AM 16.0 °F - 12.9 °F 88% 30.45 in 8.0 mi Calm Calm - N/A   Clear
2:53 AM 14.0 °F - 10.9 °F 88% 30.47 in 8.0 mi Calm Calm - N/A   Clear
3:53 AM 15.1 °F - 12.0 °F 88% 30.46 in 8.0 mi Calm Calm - N/A   Clear
4:53 AM 15.1 °F - 10.9 °F 84% 30.46 in 8.0 mi Calm Calm - N/A   Clear
5:53 AM 14.0 °F - 10.0 °F 84% 30.46 in 8.0 mi Calm Calm - N/A   Clear
6:53 AM 12.0 °F - 9.0 °F 88% 30.47 in 8.0 mi Calm Calm - N/A   Clear
7:53 AM 14.0 °F - 10.0 °F 84% 30.47 in 8.0 mi Calm Calm - N/A   Clear
8:53 AM 19.0 °F - 15.1 °F 85% 30.48 in 10.0 mi Calm Calm - N/A   Clear
9:53 AM 24.1 °F - 21.0 °F 88% 30.49 in 10.0 mi Calm Calm - N/A   Clear
10:53 AM 34.0 °F - 25.0 °F 70% 30.46 in 10.0 mi Calm Calm - N/A   Clear
11:53 AM 39.0 °F 30.6 °F 19.0 °F 45% 30.41 in 10.0 mi SSW 15.0 mph - N/A   Clear
12:53 PM 41.0 °F 34.7 °F 19.0 °F 41% 30.40 in 10.0 mi SSW 10.4 mph - N/A   Clear
1:53 PM 39.9 °F 31.8 °F 18.0 °F 41% 30.36 in 10.0 mi South 15.0 mph - N/A   Clear
2:53 PM 39.9 °F 33.9 °F 17.1 °F 40% 30.37 in 10.0 mi SSW 9.2 mph - N/A   Clear
3:53 PM 39.0 °F 31.4 °F 18.0 °F 43% 30.35 in 10.0 mi South 12.7 mph - N/A   Clear
4:53 PM 36.0 °F 33.3 °F 19.0 °F 50% 30.34 in 10.0 mi South 3.5 mph - N/A   Clear
5:53 PM 35.1 °F - 18.0 °F 50% 30.33 in 10.0 mi Calm Calm - N/A   Clear
6:53 PM 35.1 °F 29.3 °F 18.0 °F 50% 30.32 in 10.0 mi SSE 6.9 mph - N/A   Clear
7:53 PM 35.1 °F 30.1 °F 17.1 °F 48% 30.29 in 10.0 mi South 5.8 mph - N/A   Clear
8:53 PM 35.1 °F 28.6 °F 19.0 °F 52% 30.28 in 10.0 mi South 8.1 mph - N/A   Clear
9:53 PM 35.1 °F 30.1 °F 21.9 °F 59% 30.28 in 10.0 mi South 5.8 mph - N/A   Clear
10:53 PM 37.0 °F 29.8 °F 21.0 °F 52% 30.24 in 10.0 mi South 10.4 mph - N/A   Clear
11:53 PM 36.0 °F 28.0 °F 21.9 °F 57% 30.23 in 10.0 mi South 11.5 mph 20.7 mph N/A   Partly Cloudy